Home > Weather > Stonewall > Past weeks

Flag for Canada Weather for the Past 2 Weeks in Stonewall, Manitoba, Canada

Now
1 °F

Scattered clouds.


Feels Like: -6 °F
Forecast: -8 / 5 °F
Wind: 3 mph from Northeast

Location: Winnipeg Int. Airportman.

Current Time: Feb 10, 2016 at 6:25:48 PM

Latest Report: Feb 10, 2016 at 5:00 PM


Visibility: 15 mi

Pressure: 30.38 "Hg

Humidity: 65%

Dew point: -8 °F

Location of StonewallLocation

Historic Weather in Stonewall — Graph

°F

Stonewall Temperature Yesterday

Maximum temperature yesterday: 5 °F (at 4:00 AM)
Minimum temperature yesterday: -6 °F (at 12:00 AM)
Average temperature yesterday: 0 °F

High & Low Weather Summary for the Past Weeks

 TemperatureHumidityPressure
High37 °F (Jan 27, 2:00 PM)100% (Jan 27, 10:00 AM)30.45 "Hg (Jan 27, 10:00 AM)
Low-6 °F (Feb 9, 12:00 AM)60% (Feb 10, 1:00 PM)29.21 "Hg (Jan 30, 1:00 AM)
Average15 °F81%29.94 "Hg
* Reported Jan 26 5:00 PM — Feb 10 5:00 PM, Stonewall, Weather by CustomWeather, © 2016

Note: Actual official high and low records may vary slightly from our data, if they occured in-between our weather recording intervals... More about our weather records

Advertising

Stonewall Weather History for the Previous 24 Hours

 ConditionsComfort  
Time TempWeatherWind HumidityBarometerVisibility
5:00 PM
Wed, Feb 10
1 °FScattered clouds.3 mph65%30.38 "Hg15 mi
4:00 PM3 °FScattered clouds.9 mph66%30.36 "Hg15 mi
3:00 PM3 °FPartly sunny.8 mph66%30.34 "Hg15 mi
2:00 PM5 °FMostly cloudy.5 mph60%30.33 "Hg15 mi
1:00 PM3 °FMostly cloudy.3 mph60%30.32 "Hg15 mi
12:00 PM1 °FMostly cloudy.5 mph71%30.30 "Hg15 mi
11:00 AM0 °FMostly cloudy.3 mph71%30.30 "Hg15 mi
10:00 AM0 °FMostly cloudy.5 mph71%30.29 "Hg15 mi
9:00 AM-2 °FOvercast.6 mph71%30.27 "Hg15 mi
8:00 AM-2 °FPartly sunny.7 mph71%30.27 "Hg15 mi
7:00 AM-2 °FPassing clouds.8 mph65%30.26 "Hg15 mi
6:00 AM-2 °FOvercast.8 mph65%30.26 "Hg15 mi
5:00 AM-2 °FOvercast.9 mph71%30.25 "Hg15 mi
4:00 AM-2 °FOvercast.10 mph71%30.24 "Hg15 mi
3:00 AM-2 °FPassing clouds.9 mph71%30.26 "Hg15 mi
2:00 AM-4 °FPassing clouds.6 mph71%30.28 "Hg15 mi
1:00 AM-4 °FPassing clouds.5 mph71%30.30 "Hg15 mi
12:00 AM-6 °FPassing clouds.2 mph77%30.32 "Hg15 mi
11:00 PM
Tue, Feb 9
-6 °FPassing clouds.2 mph77%30.33 "Hg15 mi
10:00 PM-4 °FPassing clouds.5 mph71%30.34 "Hg15 mi
9:00 PM-6 °FPassing clouds.5 mph77%30.37 "Hg15 mi
8:00 PM-4 °FPassing clouds.3 mph77%30.37 "Hg15 mi
7:00 PM-6 °FPassing clouds.6 mph77%30.39 "Hg15 mi
6:00 PM0 °FPassing clouds.8 mph65%30.38 "Hg15 mi
Weather by CustomWeather, © 2016

See weather overviewHow to use our weather pages